sat.trackr.live / text

‹ back to catalog

STARLINK-2692

NORAD 48434 · 2021-040G

PAYLOAD ACTIVE UNKNOWN

§ Identity

Operator
Country
US
Launch date
2021-05-09
Launch site
AFETR
Launch vehicle
Mass (kg)
RCS (m²)

Purposes: comms

External: N2YO · Heavens-Above · Gunter

§ Orbital elements

Epoch: 2026-05-25T00:39:47.977632Z

Period
94.01 min
Inclination
53.1582°
Eccentricity
0.0001099
Mean motion
15.31698436 rev/d
Perigee alt
470.0 km
Apogee alt
471.5 km
Semi-major
6,848.9 km
B*
2.9466e-5
RAAN
157.7268°
Arg perigee
76.1320°
Mean anomaly
283.9804°
Rev number
27,873

§ Raw data

STARLINK-26921 48434U 21040G   26145.02763863  .00000549  00000+0  29466-4 0  99912 48434  53.1582 157.7268 0001099  76.1320 283.9804 15.31698436278730

JSON: /api/v1/satellites/48434 · /tle

For live sub-satellite position, see the globe view (requires WebGL).

§ Visibility from observer

Set your observer location to see the next 7 days of passes ≥ 10°. The values pass through the URL so the page stays shareable.

No JS? Fill the form by hand. The geolocation button needs JavaScript.